Time,TemperatureF,DewpointF,PressureIn,WindDirection,WindDirectionDegrees,WindSpeedMPH,WindSpeedGustMPH,Humidity,HourlyPrecipIn,Conditions,Clouds,dailyrainin,SoftwareType,DateUTC
2013-04-15 00:03:00,57.0,-99.9,-100.00,SSW,196,7.0,-999.0,-999,0.56,,,0.56,,2013-04-15 05:03:00,
2013-04-15 00:13:00,57.0,-99.9,-100.00,SSW,196,7.0,-999.0,-999,0.56,,,0.56,,2013-04-15 05:13:00,
2013-04-15 00:23:00,57.0,-99.9,-100.00,SSW,196,7.0,-999.0,-999,0.56,,,0.56,,2013-04-15 05:23:00,
2013-04-15 00:33:00,58.0,-99.9,-100.00,SSW,211,5.0,-999.0,-999,0.10,,,0.56,,2013-04-15 05:33:00,
2013-04-15 00:43:00,58.0,-99.9,-100.00,SSW,211,5.0,-999.0,-999,0.10,,,0.56,,2013-04-15 05:43:00,
2013-04-15 00:53:00,58.0,-99.9,-100.00,SSW,211,5.0,-999.0,-999,0.10,,,0.56,,2013-04-15 05:53:00,
2013-04-15 01:02:00,58.0,-99.9,-100.00,SW,222,4.0,-999.0,-999,0.00,,,0.56,,2013-04-15 06:02:00,
2013-04-15 01:12:00,58.0,-99.9,-100.00,SW,222,4.0,-999.0,-999,0.00,,,0.56,,2013-04-15 06:12:00,
2013-04-15 01:23:00,58.0,-99.9,-100.00,SW,222,4.0,-999.0,-999,0.00,,,0.56,,2013-04-15 06:23:00,
2013-04-15 01:30:00,57.0,-99.9,-100.00,SSE,149,1.0,-999.0,-999,0.00,,,0.56,,2013-04-15 06:30:00,
2013-04-15 01:34:00,57.0,-99.9,-100.00,West,276,2.0,-999.0,-999,0.00,,,0.56,,2013-04-15 06:34:00,
2013-04-15 01:43:00,57.0,-99.9,-100.00,West,276,2.0,-999.0,-999,0.00,,,0.56,,2013-04-15 06:43:00,
2013-04-15 01:53:00,57.0,-99.9,-100.00,West,276,2.0,-999.0,-999,0.00,,,0.56,,2013-04-15 06:53:00,
2013-04-15 02:03:00,57.0,-99.9,-100.00,SSE,149,1.0,-999.0,-999,0.00,,,0.56,,2013-04-15 07:03:00,
2013-04-15 02:43:00,57.0,-99.9,-100.00,South,170,1.0,-999.0,-999,0.00,,,0.56,,2013-04-15 07:43:00,
2013-04-15 02:54:00,57.0,-99.9,-100.00,South,170,1.0,-999.0,-999,0.00,,,0.56,,2013-04-15 07:54:00,
2013-04-15 03:03:00,55.0,-99.9,-100.00,SW,235,2.0,-999.0,-999,0.01,,,0.57,,2013-04-15 08:03:00,
2013-04-15 03:14:00,55.0,-99.9,-100.00,SW,235,2.0,-999.0,-999,0.01,,,0.57,,2013-04-15 08:14:00,
2013-04-15 03:23:00,55.0,-99.9,-100.00,SW,235,2.0,-999.0,-999,0.01,,,0.57,,2013-04-15 08:23:00,
2013-04-15 03:35:00,56.0,-99.9,-100.00,WNW,289,0.0,-999.0,-999,0.01,,,0.57,,2013-04-15 08:35:00,
2013-04-15 03:43:00,56.0,-99.9,-100.00,WNW,289,0.0,-999.0,-999,0.01,,,0.57,,2013-04-15 08:43:00,
2013-04-15 03:52:00,56.0,-99.9,-100.00,WNW,289,0.0,-999.0,-999,0.01,,,0.57,,2013-04-15 08:52:00,
2013-04-15 04:03:00,55.0,-99.9,-100.00,WSW,240,0.0,-999.0,-999,0.00,,,0.57,,2013-04-15 09:03:00,
2013-04-15 04:13:00,55.0,-99.9,-100.00,WSW,240,0.0,-999.0,-999,0.00,,,0.57,,2013-04-15 09:13:00,
2013-04-15 04:23:00,55.0,-99.9,-100.00,WSW,240,0.0,-999.0,-999,0.00,,,0.57,,2013-04-15 09:23:00,
2013-04-15 04:33:00,56.0,-99.9,-100.00,SW,219,1.0,-999.0,-999,0.00,,,0.57,,2013-04-15 09:33:00,
2013-04-15 04:43:00,56.0,-99.9,-100.00,SW,219,1.0,-999.0,-999,0.00,,,0.57,,2013-04-15 09:43:00,
2013-04-15 04:53:00,56.0,-99.9,-100.00,SW,219,1.0,-999.0,-999,0.00,,,0.57,,2013-04-15 09:53:00,
2013-04-15 05:03:00,55.0,-99.9,-100.00,SSW,212,2.0,-999.0,-999,0.00,,,0.57,,2013-04-15 10:03:00,
2013-04-15 05:13:00,55.0,-99.9,-100.00,SSW,212,2.0,-999.0,-999,0.00,,,0.57,,2013-04-15 10:13:00,
2013-04-15 05:23:00,55.0,-99.9,-100.00,SSW,212,2.0,-999.0,-999,0.00,,,0.57,,2013-04-15 10:23:00,
2013-04-15 05:33:00,56.0,-99.9,-100.00,SSW,213,4.0,-999.0,-999,0.00,,,0.57,,2013-04-15 10:33:00,
2013-04-15 05:42:00,56.0,-99.9,-100.00,SSW,213,4.0,-999.0,-999,0.00,,,0.57,,2013-04-15 10:42:00,
2013-04-15 05:53:00,56.0,-99.9,-100.00,SSW,213,4.0,-999.0,-999,0.00,,,0.57,,2013-04-15 10:53:00,
2013-04-15 06:04:00,54.0,-99.9,-100.00,SSW,209,0.0,-999.0,-999,0.00,,,0.57,,2013-04-15 11:04:00,
2013-04-15 06:13:00,54.0,-99.9,-100.00,SSW,209,0.0,-999.0,-999,0.00,,,0.57,,2013-04-15 11:13:00,
2013-04-15 06:23:00,54.0,-99.9,-100.00,SSW,209,0.0,-999.0,-999,0.00,,,0.57,,2013-04-15 11:23:00,
2013-04-15 06:33:00,53.0,-99.9,-100.00,SW,223,1.0,-999.0,-999,0.00,,,0.57,,2013-04-15 11:33:00,
2013-04-15 06:44:00,53.0,-99.9,-100.00,SW,223,1.0,-999.0,-999,0.00,,,0.57,,2013-04-15 11:44:00,
2013-04-15 07:05:00,55.0,-99.9,-100.00,WSW,237,5.0,-999.0,-999,0.00,,,0.57,,2013-04-15 12:05:00,
2013-04-15 07:15:00,55.0,-99.9,-100.00,WSW,237,5.0,-999.0,-999,0.00,,,0.57,,2013-04-15 12:15:00,
2013-04-15 07:24:00,55.0,-99.9,-100.00,WSW,237,5.0,-999.0,-999,0.00,,,0.57,,2013-04-15 12:24:00,
2013-04-15 07:35:00,55.0,-99.9,-100.00,SW,225,4.0,-999.0,-999,0.00,,,0.57,,2013-04-15 12:35:00,
2013-04-15 07:43:00,55.0,-99.9,-100.00,SW,225,4.0,-999.0,-999,0.00,,,0.57,,2013-04-15 12:43:00,
2013-04-15 07:54:00,55.0,-99.9,-100.00,SW,225,4.0,-999.0,-999,0.00,,,0.57,,2013-04-15 12:54:00,
2013-04-15 08:05:00,54.0,-99.9,-100.00,SW,225,3.0,-999.0,-999,0.00,,,0.57,,2013-04-15 13:05:00,
2013-04-15 08:13:00,54.0,-99.9,-100.00,SW,225,3.0,-999.0,-999,0.00,,,0.57,,2013-04-15 13:13:00,
2013-04-15 08:24:00,54.0,-99.9,-100.00,SW,225,3.0,-999.0,-999,0.00,,,0.57,,2013-04-15 13:24:00,
2013-04-15 08:34:00,54.0,-99.9,-100.00,SSW,192,6.0,-999.0,-999,0.01,,,0.58,,2013-04-15 13:34:00,
2013-04-15 08:43:00,54.0,-99.9,-100.00,SSW,192,6.0,-999.0,-999,0.01,,,0.58,,2013-04-15 13:43:00,
2013-04-15 08:54:00,54.0,-99.9,-100.00,SSW,192,6.0,-999.0,-999,0.01,,,0.58,,2013-04-15 13:54:00,
2013-04-15 09:06:00,53.0,-99.9,-100.00,West,262,4.0,-999.0,-999,0.03,,,0.60,,2013-04-15 14:06:00,
2013-04-15 09:14:00,53.0,-99.9,-100.00,West,262,4.0,-999.0,-999,0.03,,,0.60,,2013-04-15 14:14:00,
2013-04-15 09:23:00,53.0,-99.9,-100.00,West,262,4.0,-999.0,-999,0.03,,,0.60,,2013-04-15 14:23:00,
2013-04-15 09:34:00,52.0,-99.9,-100.00,WNW,282,5.0,-999.0,-999,0.03,,,0.61,,2013-04-15 14:34:00,
2013-04-15 09:45:00,52.0,-99.9,-100.00,WNW,282,5.0,-999.0,-999,0.03,,,0.61,,2013-04-15 14:45:00,
2013-04-15 09:55:00,52.0,-99.9,-100.00,WNW,282,5.0,-999.0,-999,0.03,,,0.61,,2013-04-15 14:55:00,
2013-04-15 10:04:00,52.0,-99.9,-100.00,SSW,207,2.0,-999.0,-999,0.04,,,0.64,,2013-04-15 15:04:00,
2013-04-15 10:13:00,52.0,-99.9,-100.00,SSW,207,2.0,-999.0,-999,0.04,,,0.64,,2013-04-15 15:13:00,
2013-04-15 10:25:00,52.0,-99.9,-100.00,SSW,207,2.0,-999.0,-999,0.04,,,0.64,,2013-04-15 15:25:00,
2013-04-15 10:37:00,52.0,-99.9,-100.00,West,279,5.0,-999.0,-999,0.03,,,0.64,,2013-04-15 15:37:00,
2013-04-15 10:45:00,52.0,-99.9,-100.00,West,279,5.0,-999.0,-999,0.03,,,0.64,,2013-04-15 15:45:00,
2013-04-15 10:55:00,52.0,-99.9,-100.00,West,279,5.0,-999.0,-999,0.03,,,0.64,,2013-04-15 15:55:00,
2013-04-15 11:05:00,53.0,-99.9,-100.00,West,263,1.0,-999.0,-999,0.00,,,0.64,,2013-04-15 16:05:00,
2013-04-15 11:14:00,53.0,-99.9,-100.00,West,263,1.0,-999.0,-999,0.00,,,0.64,,2013-04-15 16:14:00,
2013-04-15 11:25:00,53.0,-99.9,-100.00,West,263,1.0,-999.0,-999,0.00,,,0.64,,2013-04-15 16:25:00,
2013-04-15 11:34:00,53.0,-99.9,-100.00,West,276,2.0,-999.0,-999,0.00,,,0.64,,2013-04-15 16:34:00,
2013-04-15 11:45:00,53.0,-99.9,-100.00,West,276,2.0,-999.0,-999,0.00,,,0.64,,2013-04-15 16:45:00,
2013-04-15 11:55:00,53.0,-99.9,-100.00,West,276,2.0,-999.0,-999,0.00,,,0.64,,2013-04-15 16:55:00,
2013-04-15 12:05:00,54.0,-99.9,-100.00,West,270,3.0,-999.0,-999,0.00,,,0.64,,2013-04-15 17:05:00,
2013-04-15 12:15:00,54.0,-99.9,-100.00,West,270,3.0,-999.0,-999,0.00,,,0.64,,2013-04-15 17:15:00,
2013-04-15 12:22:00,54.0,-99.9,-100.00,West,270,3.0,-999.0,-999,0.00,,,0.64,,2013-04-15 17:22:00,
2013-04-15 12:33:00,55.0,-99.9,-100.00,WNW,290,5.0,-999.0,-999,0.00,,,0.64,,2013-04-15 17:33:00,
2013-04-15 12:44:00,55.0,-99.9,-100.00,WNW,290,5.0,-999.0,-999,0.00,,,0.64,,2013-04-15 17:44:00,
2013-04-15 12:53:00,55.0,-99.9,-100.00,WNW,290,5.0,-999.0,-999,0.00,,,0.64,,2013-04-15 17:53:00,
2013-04-15 13:04:00,56.0,-99.9,-100.00,NW,305,5.0,-999.0,-999,0.00,,,0.64,,2013-04-15 18:04:00,
2013-04-15 13:13:00,56.0,-99.9,-100.00,NW,305,5.0,-999.0,-999,0.00,,,0.64,,2013-04-15 18:13:00,
2013-04-15 13:24:00,56.0,-99.9,-100.00,NW,305,5.0,-999.0,-999,0.00,,,0.64,,2013-04-15 18:24:00,
2013-04-15 13:33:00,56.0,-99.9,-100.00,WNW,282,3.0,-999.0,-999,0.00,,,0.64,,2013-04-15 18:33:00,
2013-04-15 13:42:00,56.0,-99.9,-100.00,WNW,282,3.0,-999.0,-999,0.00,,,0.64,,2013-04-15 18:42:00,
2013-04-15 13:52:00,56.0,-99.9,-100.00,WNW,282,3.0,-999.0,-999,0.00,,,0.64,,2013-04-15 18:52:00,
2013-04-15 14:00:00,57.0,-99.9,-100.00,WSW,258,1.0,-999.0,-999,0.00,,,0.64,,2013-04-15 19:00:00,
2013-04-15 14:02:00,58.0,-99.9,-100.00,WSW,253,2.0,-999.0,-999,0.00,,,0.64,,2013-04-15 19:02:00,
2013-04-15 14:12:00,58.0,-99.9,-100.00,WSW,253,2.0,-999.0,-999,0.00,,,0.64,,2013-04-15 19:12:00,
2013-04-15 14:22:00,58.0,-99.9,-100.00,WSW,253,2.0,-999.0,-999,0.00,,,0.64,,2013-04-15 19:22:00,
2013-04-15 14:39:00,57.0,-99.9,-100.00,WSW,258,1.0,-999.0,-999,0.00,,,0.64,,2013-04-15 19:39:00,
2013-04-15 14:59:00,57.0,-99.9,-100.00,WSW,258,1.0,-999.0,-999,0.00,,,0.64,,2013-04-15 19:59:00,
2013-04-15 15:02:00,56.0,-99.9,-100.00,NNW,335,7.0,-999.0,-999,0.00,,,0.64,,2013-04-15 20:02:00,
2013-04-15 15:12:00,56.0,-99.9,-100.00,NNW,335,7.0,-999.0,-999,0.00,,,0.64,,2013-04-15 20:12:00,
2013-04-15 15:22:00,56.0,-99.9,-100.00,NNW,335,7.0,-999.0,-999,0.00,,,0.64,,2013-04-15 20:22:00,
2013-04-15 15:32:00,56.0,-99.9,-100.00,NNW,345,8.0,-999.0,-999,0.00,,,0.64,,2013-04-15 20:32:00,
2013-04-15 15:42:00,56.0,-99.9,-100.00,NNW,345,8.0,-999.0,-999,0.00,,,0.64,,2013-04-15 20:42:00,
2013-04-15 15:52:00,56.0,-99.9,-100.00,NNW,345,8.0,-999.0,-999,0.00,,,0.64,,2013-04-15 20:52:00,
2013-04-15 16:02:00,56.0,-99.9,-100.00,North,358,6.0,-999.0,-999,0.00,,,0.64,,2013-04-15 21:02:00,
2013-04-15 16:12:00,56.0,-99.9,-100.00,North,358,6.0,-999.0,-999,0.00,,,0.64,,2013-04-15 21:12:00,
2013-04-15 16:22:00,56.0,-99.9,-100.00,North,358,6.0,-999.0,-999,0.00,,,0.64,,2013-04-15 21:22:00,
2013-04-15 16:33:00,56.0,-99.9,-100.00,North,-999,8.0,-999.0,-999,0.00,,,0.64,,2013-04-15 21:33:00,
2013-04-15 16:43:00,56.0,-99.9,-100.00,North,-999,8.0,-999.0,-999,0.00,,,0.64,,2013-04-15 21:43:00,
2013-04-15 16:53:00,56.0,-99.9,-100.00,North,-999,8.0,-999.0,-999,0.00,,,0.64,,2013-04-15 21:53:00,
2013-04-15 17:03:00,56.0,-99.9,-100.00,North,-999,8.0,-999.0,-999,0.00,,,0.64,,2013-04-15 22:03:00,
2013-04-15 17:13:00,56.0,-99.9,-100.00,North,-999,8.0,-999.0,-999,0.00,,,0.64,,2013-04-15 22:13:00,
2013-04-15 17:23:00,56.0,-99.9,-100.00,North,-999,8.0,-999.0,-999,0.00,,,0.64,,2013-04-15 22:23:00,
2013-04-15 17:33:00,55.0,-99.9,-100.00,North,7,11.0,-999.0,-999,0.01,,,0.65,,2013-04-15 22:33:00,
2013-04-15 17:42:00,55.0,-99.9,-100.00,North,7,11.0,-999.0,-999,0.01,,,0.65,,2013-04-15 22:42:00,
2013-04-15 17:52:00,55.0,-99.9,-100.00,North,7,11.0,-999.0,-999,0.01,,,0.65,,2013-04-15 22:52:00,
2013-04-15 18:02:00,54.0,-99.9,-100.00,North,1,11.0,-999.0,-999,0.01,,,0.65,,2013-04-15 23:02:00,
2013-04-15 18:12:00,54.0,-99.9,-100.00,North,1,11.0,-999.0,-999,0.01,,,0.65,,2013-04-15 23:12:00,
2013-04-15 18:22:00,54.0,-99.9,-100.00,North,1,11.0,-999.0,-999,0.01,,,0.65,,2013-04-15 23:22:00,
2013-04-15 18:32:00,53.0,-99.9,-100.00,NNE,14,9.0,-999.0,-999,0.00,,,0.65,,2013-04-15 23:32:00,
2013-04-15 18:42:00,53.0,-99.9,-100.00,NNE,14,9.0,-999.0,-999,0.00,,,0.65,,2013-04-15 23:42:00,
2013-04-15 18:52:00,53.0,-99.9,-100.00,NNE,14,9.0,-999.0,-999,0.00,,,0.65,,2013-04-15 23:52:00,
2013-04-15 19:03:00,52.0,-99.9,-100.00,North,4,9.0,-999.0,-999,0.00,,,0.65,,2013-04-16 00:03:00,
2013-04-15 19:12:00,52.0,-99.9,-100.00,North,4,9.0,-999.0,-999,0.00,,,0.65,,2013-04-16 00:12:00,
2013-04-15 19:22:00,52.0,-99.9,-100.00,North,4,9.0,-999.0,-999,0.00,,,0.65,,2013-04-16 00:22:00,
2013-04-15 19:32:00,52.0,-99.9,-100.00,North,8,8.0,-999.0,-999,0.00,,,0.65,,2013-04-16 00:32:00,
2013-04-15 19:42:00,52.0,-99.9,-100.00,North,8,8.0,-999.0,-999,0.00,,,0.65,,2013-04-16 00:42:00,
2013-04-15 19:52:00,52.0,-99.9,-100.00,North,8,8.0,-999.0,-999,0.00,,,0.65,,2013-04-16 00:52:00,
2013-04-15 20:00:00,51.0,-99.9,-100.00,NNE,19,14.0,-999.0,-999,0.00,,,0.65,,2013-04-16 01:00:00,
2013-04-15 20:02:00,52.0,-99.9,-100.00,NNE,21,12.0,-999.0,-999,0.00,,,0.65,,2013-04-16 01:02:00,
2013-04-15 20:12:00,52.0,-99.9,-100.00,NNE,21,12.0,-999.0,-999,0.00,,,0.65,,2013-04-16 01:12:00,
2013-04-15 20:22:00,52.0,-99.9,-100.00,NNE,21,12.0,-999.0,-999,0.00,,,0.65,,2013-04-16 01:22:00,
2013-04-15 20:32:00,51.0,-99.9,-100.00,NNE,19,14.0,-999.0,-999,0.00,,,0.65,,2013-04-16 01:32:00,
2013-04-15 20:42:00,51.0,-99.9,-100.00,NNE,19,14.0,-999.0,-999,0.00,,,0.65,,2013-04-16 01:42:00,
2013-04-15 20:52:00,51.0,-99.9,-100.00,NNE,19,14.0,-999.0,-999,0.00,,,0.65,,2013-04-16 01:52:00,
2013-04-15 21:32:00,49.0,-99.9,-100.00,NNE,18,15.0,-999.0,-999,0.00,,,0.65,,2013-04-16 02:32:00,
2013-04-15 21:42:00,49.0,-99.9,-100.00,NNE,18,15.0,-999.0,-999,0.00,,,0.65,,2013-04-16 02:42:00,
2013-04-15 21:52:00,49.0,-99.9,-100.00,NNE,18,15.0,-999.0,-999,0.00,,,0.65,,2013-04-16 02:52:00,
2013-04-15 22:02:00,48.0,-99.9,-100.00,NNE,14,15.0,-999.0,-999,0.00,,,0.65,,2013-04-16 03:02:00,
2013-04-15 22:12:00,48.0,-99.9,-100.00,NNE,14,15.0,-999.0,-999,0.00,,,0.65,,2013-04-16 03:12:00,
2013-04-15 22:22:00,48.0,-99.9,-100.00,NNE,14,15.0,-999.0,-999,0.00,,,0.65,,2013-04-16 03:22:00,
2013-04-15 22:33:00,47.0,-99.9,-100.00,North,11,15.0,-999.0,-999,0.00,,,0.65,,2013-04-16 03:33:00,
2013-04-15 22:43:00,47.0,-99.9,-100.00,North,11,15.0,-999.0,-999,0.00,,,0.65,,2013-04-16 03:43:00,
2013-04-15 22:53:00,47.0,-99.9,-100.00,North,11,15.0,-999.0,-999,0.00,,,0.65,,2013-04-16 03:53:00,
2013-04-15 23:03:00,47.0,-99.9,-100.00,NNE,15,17.0,-999.0,-999,0.00,,,0.65,,2013-04-16 04:03:00,
2013-04-15 23:13:00,47.0,-99.9,-100.00,NNE,15,17.0,-999.0,-999,0.00,,,0.65,,2013-04-16 04:13:00,
2013-04-15 23:23:00,47.0,-99.9,-100.00,NNE,15,17.0,-999.0,-999,0.00,,,0.65,,2013-04-16 04:23:00,
2013-04-15 23:33:00,46.0,-99.9,-100.00,North,2,13.0,-999.0,-999,0.00,,,0.19,,2013-04-16 04:33:00,
2013-04-15 23:42:00,46.0,-99.9,-100.00,North,2,13.0,-999.0,-999,0.00,,,0.19,,2013-04-16 04:42:00,
2013-04-15 23:53:00,46.0,-99.9,-100.00,North,2,13.0,-999.0,-999,0.00,,,0.19,,2013-04-16 04:53:00,